Location: ?????????
(54.7630°N, 39.4991°E)
Time: 02:12:15
(UTC+00:00)

Cosmos 1862 - Pass Details

Date: 14 April 2026
Orbit: 464 x 478 km, 82.5° (Epoch: 20 May)

Event Time Altitude Azimuth Distance (km) Brightness Sun altitude
Rises 20:21:26 0° 342° (NNW) 2,552 8.2 -24.3°
Reaches altitude 10° 20:23:39 10° 334° (NNW) 1,665 6.8 -24.4°
Enters shadow 20:26:25 34° 290° (WNW) 815 4.4 -24.5°
